sat.trackr.live / text

‹ back to catalog

KUIPER-00016

NORAD 63732 · 2025-088J

PAYLOAD ACTIVE UNKNOWN

§ Identity

Operator
Country
US
Launch date
2025-04-28
Launch site
AFETR
Launch vehicle
Mass (kg)
RCS (m²)

External: N2YO · Heavens-Above · Gunter

§ Orbital elements

Epoch: 2026-05-25T02:55:21.724608Z

Period
97.30 min
Inclination
51.8994°
Eccentricity
0.0000546
Mean motion
14.80017799 rev/d
Perigee alt
628.9 km
Apogee alt
629.7 km
Semi-major
7,007.4 km
B*
1.9264e-4
RAAN
132.5878°
Arg perigee
68.2335°
Mean anomaly
291.8685°
Rev number
5,866

§ Raw data

KUIPER-000161 63732U 25088J   26145.12177922  .00001251  00000+0  19264-3 0  99962 63732  51.8994 132.5878 0000546  68.2335 291.8685 14.80017799 58665

JSON: /api/v1/satellites/63732 · /tle

For live sub-satellite position, see the globe view (requires WebGL).

§ Visibility from observer

Set your observer location to see the next 7 days of passes ≥ 10°. The values pass through the URL so the page stays shareable.

No JS? Fill the form by hand. The geolocation button needs JavaScript.